Weather History for Lordsburg, NM

Change the Weather History Date:

Saturday, October 6, 2012

  Actual Average Record
Temperature  
Mean Temperature 68 °F -  
Max Temperature 86 °F 83 °F 80 °F (2014)
Min Temperature 51 °F 46 °F 37 °F (2013)
Cooling Degree Days 4    
Growing Degree Days 18 (Base 50)    
Moisture  
Dew Point 28 °F    
Average Humidity 23    
Maximum Humidity 44    
Minimum Humidity 11    
Precipitation  
Precipitation 0.00 in - - ()
Sea Level Pressure  
Sea Level Pressure 30.04 in    
Wind  
Wind Speed 4 mph ()    
Max Wind Speed 14 mph    
Max Gust Speed 22 mph    
Visibility 10.0 miles    
Events      
Averages and records for this station are not official NWS values.
T = Trace of Precipitation, MM = Missing Value Source: Averaged Metar Reports

Daily Weather History Graph

Daily Weather History Graph

Search for Another Location

Airport:

Trip Planner

Search our weather history database for the weather conditions in past years. The results will help you decide how hot, cold, wet, or windy it might be!

Date:

Astronomy

Oct. 06, 2012 Rise Set
Actual Time 7:12 AM MDT 6:52 PM MDT
Civil Twilight 6:47 AM MDT 7:16 PM MDT
Nautical Twilight 6:19 AM MDT 7:45 PM MDT
Astronomical Twilight 5:51 AM MDT 8:13 PM MDT
Moon 11:25 PM MDT (10/6) 12:54 PM MDT (10/6)
Length of Visible Light 12h 28m
Length of Day
11h 39m
Waning Gibbous, 65% of the Moon is Illuminated
Oct 6
Waning Gibbous
Oct 8
Last Quarter
Oct 15
New
Oct 21
First Quarter
Oct 29
Full

Hourly Weather History & Observations

Time (MDT) Temp. Dew Point Humidity Pressure Visibility Wind Dir Wind Speed Gust Speed Precip Events Conditions
12:15 AM 60.8 °F 23.0 °F 23% 30.08 in 10.0 mi WNW 3.5 mph - N/A   Clear
12:55 AM 59.0 °F 24.8 °F 27% 30.08 in 10.0 mi NW 3.5 mph - N/A   Clear
1:15 AM 62.6 °F 26.6 °F 26% 30.08 in 10.0 mi NW 4.6 mph - N/A   Clear
1:35 AM 62.6 °F 28.4 °F 27% 30.08 in 10.0 mi NNW 3.5 mph - N/A   Clear
1:55 AM 60.8 °F 28.4 °F 29% 30.08 in 10.0 mi NNW 3.5 mph - N/A   Clear
2:15 AM 60.8 °F 28.4 °F 29% 30.08 in 10.0 mi Calm Calm - N/A   Clear
2:35 AM 60.8 °F 28.4 °F 29% 30.08 in 10.0 mi Calm Calm - N/A   Clear
2:55 AM 59.0 °F 28.4 °F 31% 30.08 in 10.0 mi Calm Calm - N/A   Clear
3:35 AM 60.8 °F 28.4 °F 29% 30.07 in 10.0 mi Calm Calm - N/A   Clear
3:55 AM 59.0 °F 28.4 °F 31% 30.07 in 10.0 mi NNW 3.5 mph - N/A   Clear
4:15 AM 59.0 °F 30.2 °F 34% 30.07 in 10.0 mi Calm Calm - N/A   Clear
4:35 AM 55.4 °F 28.4 °F 36% 30.07 in 10.0 mi Calm Calm - N/A   Clear
4:55 AM 57.2 °F 30.2 °F 36% 30.08 in 10.0 mi Calm Calm - N/A   Clear
5:15 AM 59.0 °F 30.2 °F 34% 30.08 in 10.0 mi Calm Calm - N/A   Clear
5:35 AM 59.0 °F 28.4 °F 31% 30.08 in 10.0 mi Calm Calm - N/A   Clear
5:55 AM 55.4 °F 30.2 °F 38% 30.08 in 10.0 mi Calm Calm - N/A   Clear
6:15 AM 55.4 °F 28.4 °F 36% 30.08 in 10.0 mi Calm Calm - N/A   Clear
6:35 AM 55.4 °F 30.2 °F 38% 30.08 in 10.0 mi Calm Calm - N/A   Clear
6:55 AM 51.8 °F 30.2 °F 44% 30.09 in 10.0 mi NNW 4.6 mph - N/A   Clear
7:15 AM 53.6 °F 30.2 °F 41% 30.10 in 10.0 mi Calm Calm - N/A   Clear
7:35 AM 51.8 °F 30.2 °F 44% 30.10 in 10.0 mi SSE 3.5 mph - N/A   Clear
7:55 AM 60.8 °F 30.2 °F 31% 30.10 in 10.0 mi Calm Calm - N/A   Clear
8:15 AM 59.0 °F 30.2 °F 34% 30.10 in 10.0 mi Calm Calm - N/A   Clear
8:35 AM 62.6 °F 32.0 °F 32% 30.10 in 10.0 mi Calm Calm - N/A   Clear
8:55 AM 64.4 °F 32.0 °F 30% 30.11 in 10.0 mi Calm Calm - N/A   Clear
9:15 AM 68.0 °F 32.0 °F 26% 30.11 in 10.0 mi Calm Calm - N/A   Clear
9:35 AM 71.6 °F 32.0 °F 23% 30.11 in 10.0 mi Calm Calm - N/A   Clear
9:55 AM 71.6 °F 32.0 °F 23% 30.11 in 10.0 mi Calm Calm - N/A   Clear
10:15 AM 73.4 °F 32.0 °F 22% 30.11 in 10.0 mi Calm Calm - N/A   Clear
10:35 AM 73.4 °F 32.0 °F 22% 30.10 in 10.0 mi Calm Calm - N/A   Clear
10:55 AM 75.2 °F 32.0 °F 21% 30.10 in 10.0 mi Calm Calm - N/A   Clear
11:15 AM 78.8 °F 32.0 °F 18% 30.09 in 10.0 mi NW 4.6 mph - N/A   Clear
11:35 AM 78.8 °F 32.0 °F 18% 30.08 in 10.0 mi West 3.5 mph - N/A   Clear
11:55 AM 78.8 °F 32.0 °F 18% 30.08 in 10.0 mi WSW 5.8 mph 17.3 mph N/A   Clear
12:15 PM 82.4 °F 32.0 °F 16% 30.07 in 10.0 mi West 8.1 mph 19.6 mph N/A   Clear
12:35 PM 80.6 °F 32.0 °F 17% 30.06 in 10.0 mi SSW 4.6 mph - N/A   Clear
12:55 PM 82.4 °F 32.0 °F 16% 30.05 in 10.0 mi West 6.9 mph 19.6 mph N/A   Clear
1:15 PM 84.2 °F 30.2 °F 14% 30.04 in 10.0 mi WSW 9.2 mph 17.3 mph N/A   Clear
1:35 PM 84.2 °F 28.4 °F 13% 30.03 in 10.0 mi West 9.2 mph - N/A   Clear
1:55 PM 84.2 °F 30.2 °F 14% 30.02 in 10.0 mi SW 10.4 mph 17.3 mph N/A   Clear
2:15 PM 84.2 °F 30.2 °F 14% 30.01 in 10.0 mi WSW 8.1 mph - N/A   Clear
2:35 PM 84.2 °F 30.2 °F 14% 30.00 in 10.0 mi West 12.7 mph 19.6 mph N/A   Clear
2:55 PM 84.2 °F 30.2 °F 14% 29.99 in 10.0 mi West 4.6 mph - N/A   Clear
3:15 PM 86.0 °F 28.4 °F 12% 29.99 in 10.0 mi West 9.2 mph - N/A   Clear
3:35 PM 84.2 °F 26.6 °F 12% 29.99 in 10.0 mi West 12.7 mph 16.1 mph N/A   Clear
3:55 PM 84.2 °F 26.6 °F 12% 29.98 in 10.0 mi WSW 9.2 mph 16.1 mph N/A   Clear
4:15 PM 86.0 °F 24.8 °F 11% 29.97 in 10.0 mi West 13.8 mph 21.9 mph N/A   Clear
4:35 PM 84.2 °F 26.6 °F 12% 29.97 in 10.0 mi West 13.8 mph - N/A   Clear
4:55 PM 86.0 °F 26.6 °F 12% 29.97 in 10.0 mi West 9.2 mph - N/A   Clear
5:15 PM 84.2 °F 28.4 °F 13% 29.97 in 10.0 mi West 13.8 mph 18.4 mph N/A   Clear
5:35 PM 82.4 °F 26.6 °F 13% 29.97 in 10.0 mi West 12.7 mph - N/A   Clear
5:55 PM 82.4 °F 24.8 °F 12% 29.97 in 10.0 mi West 12.7 mph 17.3 mph N/A   Clear
6:15 PM 82.4 °F 23.0 °F 11% 29.97 in 10.0 mi West 13.8 mph - N/A   Clear
6:35 PM 80.6 °F 23.0 °F 12% 29.96 in 10.0 mi West 5.8 mph - N/A   Clear
6:55 PM 78.8 °F 23.0 °F 13% 29.97 in 10.0 mi WNW 6.9 mph - N/A   Clear
7:15 PM 77.0 °F 24.8 °F 14% 29.97 in 10.0 mi West 5.8 mph - N/A   Clear
7:35 PM 77.0 °F 23.0 °F 13% 29.98 in 10.0 mi West 4.6 mph - N/A   Clear
7:55 PM 71.6 °F 23.0 °F 16% 29.99 in 10.0 mi West 6.9 mph - N/A   Clear
8:15 PM 73.4 °F 23.0 °F 15% 29.99 in 10.0 mi West 8.1 mph - N/A   Clear
8:35 PM 71.6 °F 23.0 °F 16% 30.00 in 10.0 mi West 6.9 mph - N/A   Clear
8:55 PM 71.6 °F 23.0 °F 16% 30.00 in 10.0 mi WNW 8.1 mph - N/A   Clear
9:15 PM 69.8 °F 23.0 °F 17% 30.00 in 10.0 mi WNW 6.9 mph - N/A   Clear
9:35 PM 68.0 °F 24.8 °F 20% 30.00 in 10.0 mi WNW 8.1 mph - N/A   Clear
9:55 PM 66.2 °F 26.6 °F 23% 30.00 in 10.0 mi WNW 6.9 mph - N/A   Clear
10:15 PM 66.2 °F 28.4 °F 24% 30.00 in 10.0 mi West 8.1 mph - N/A   Clear
10:35 PM 64.4 °F 30.2 °F 28% 30.01 in 10.0 mi West 8.1 mph - N/A   Clear
10:55 PM 64.4 °F 32.0 °F 30% 30.02 in 10.0 mi WNW 3.5 mph - N/A   Clear
11:15 PM 62.6 °F 26.6 °F 26% 30.02 in 10.0 mi North 3.5 mph - N/A   Clear
11:35 PM 60.8 °F 26.6 °F 27% 30.01 in 10.0 mi NNW 3.5 mph - N/A   Clear
11:55 PM 60.8 °F 28.4 °F 29% 30.01 in 10.0 mi Calm Calm - N/A   Clear